Weather in Losinyj

Russia / Sverdlovsk Oblast     57°08′15″N   61°04′05″E
temp.,
°C
wind,
m/s
gust,
m/s
humid.,
%
clouds,
%
prec.,
mm/h
press.,
hPa
HPBL,
m
20 june, sun
sun2023:00+14sw3998100 1.6 1009291
02:00+15w4139735 0.8 1007413
05:00+15wnw5149452 1.5 1007563
08:00+17nw7145632 0.0 10091398
11:00+19nw815280 0.0 10102007
14:00+20nw916250 0.0 10112435
17:00+19nnw815280 0.0 10132514
20:00+16nnw613385 0.0 10152271
21 june, mon
mon2123:00+12nnw612399 0.0 10171044
02:00+10nnw4125030 0.0 1019536
05:00+8nnw412624 0.0 1021521
08:00+12nnw510474 0.0 1023982
11:00+16n573323 0.0 10221497
14:00+19nnw462619 0.0 10221782
17:00+21nnw352555 0.0 10201857
20:00+16ene3642100 0.0 1019175
22 june, tue
tue2223:00+10sse2582100 0.3 1020133
02:00+11ssw278597 0.2 1019195
05:00+10ssw238375 0.2 101889
08:00+15nne117114 0.0 1017274
11:00+21n235597 0.0 10161063
14:00+22n235433 0.0 10161259
17:00+22ene345645 0.0 1016496
20:00+19ene3763100 0.0 1017303
23 june, wed
wed2323:00+16ese2668100 0.0 1017248
02:00+13e3682100 0.2 1019184
05:00+11e2595100 1.1 1020185
08:00+11sse1292100 0.3 102081
11:00+13se128099 0.3 1021391
14:00+18s234617 0.0 10201134
17:00+21sw124053 0.0 10191923
20:00+18ne115451 0.0 101923
24 june, thu
thu2423:00+14s1267100 0.0 102038
02:00+10sw22785 0.0 102038
05:00+10w22800 0.0 102138
08:00+17ene11555 0.0 1021352
11:00+22nnw14395 0.0 10212229
14:00+24n23313 0.0 10202447
17:00+25nw24293 0.0 10192642
20:00+22w254914 0.0 101895